Location: Boullarre
(49.1305°N, 3.0047°E)
Time: 22:10:48
(UTC+00:00)

ISS - Pass Details

Date: 26 September 2024
Orbit: 411 x 423 km, 51.6° (Epoch: 14 October)

Event Time Altitude Azimuth Distance (km) Brightness Sun altitude
Rises 18:40:22 0° 289° (WNW) 2,366 2.1 -11.2°
Reaches altitude 10° 18:42:28 10° 288° (WNW) 1,503 0.6 -11.6°
Maximum altitude 18:45:50 76° 204° (SSW) 438 -3.7 -12.1°
Enters shadow 18:47:59 21° 119° (ESE) 1,016 -2.4 -12.5°
